Location: Bosmont
(49.7318°N, 3.8587°E)
Time: 23:28:13
(UTC+00:00)

Cosmos 1943 Rocket - Pass Details

Date: 08 February 2023
Orbit: 811 x 844 km, 71.0° (Epoch: 21 March)

Event Time Altitude Azimuth Distance (km) Brightness Sun altitude
Rises 17:14:38 0° 332° (NNW) 3,415 5.5 -4.4°
Reaches altitude 10° 17:18:36 10° 359° (N) 2,477 4.5 -5.0°
Maximum altitude 17:21:15 13° 27° (NNE) 2,247 4.0 -5.4°
Drops below altitude 10° 17:23:54 10° 55° (NE) 2,470 4.0 -5.8°
Enters shadow 17:25:15 - 66° (ENE) 2,730 4.2 -6.0°
